Stations météo

réclame
Mon MeteoGroup
Gilze-Rijen, Pays-Bas (6350): Température de l'air & dewpoint: 13.06.2018 16:00:00 - 19.06.2018 16:00:00 (CEST)Gilze-Rijen, Pays-Bas (6350): Température de l'air 5cm: 13.06.2018 16:00:00 - 19.06.2018 16:00:00 (CEST)Gilze-Rijen, Pays-Bas (6350): Vitesse du vent & gusts: 13.06.2018 16:00:00 - 19.06.2018 16:00:00 (CEST)Gilze-Rijen, Pays-Bas (6350): Direction du vent: 13.06.2018 16:00:00 - 19.06.2018 16:00:00 (CEST)Gilze-Rijen, Pays-Bas (6350): reduced air pressure: 13.06.2018 16:00:00 - 19.06.2018 16:00:00 (CEST)Gilze-Rijen, Pays-Bas (6350): visibility: 13.06.2018 16:00:00 - 19.06.2018 16:00:00 (CEST)Gilze-Rijen, Pays-Bas (6350): Quantités de précipitations: 13.06.2018 16:00:00 - 19.06.2018 16:00:00 (CEST)
Date & Time tt [°C] td [°C] tt 5cm [°C] ff [km/h] ff [knt] fx [km/h] fx [knt] dd ppp [hPa] vv [km] rr [mm]
19.06.2018 16:00:00 20,4 15,0 21,9 9 5 22 12 WSW 1024,3 10 0,0
19.06.2018 15:00:00 20,2 14,4 21,3 13 7 22 12 W 1024,3 10 0,0
19.06.2018 14:00:00 20,7 14,6 21,9 13 7 22 12 WSW 1024,2 10 0,0
19.06.2018 13:00:00 19,5 15,3 20,1 9 5 18 10 WSW 1024,1 10 0,0
19.06.2018 12:00:00 19,9 15,6 21,0 11 6 22 12 WSW 1023,7 10 0,0
19.06.2018 11:00:00 19,2 15,8 19,6 9 5 18 10 WSW 1023,6 10 0,0
19.06.2018 10:00:00 17,8 15,7 18,1 11 6 22 12 WSW 1023,5 10 0,0
19.06.2018 09:00:00 16,5 15,5 16,5 9 5 18 10 SW 1023,0 5 0,0
19.06.2018 08:00:00 16,3 14,5 16,2 9 5 18 10 SW 1022,6 10 0,0
19.06.2018 07:00:00 15,7 14,0 15,5 8 4 18 10 SW 1022,2 10 0,0
19.06.2018 06:00:00 15,0 13,4 14,7 9 5 18 10 SSW 1021,8 10 0,0
19.06.2018 05:00:00 14,3 12,6 13,8 11 6 18 10 SW 1021,4 14 0,0
19.06.2018 04:00:00 13,7 11,8 12,6 11 6 14 8 SW 1021,2 18 0,0
19.06.2018 03:00:00 13,9 11,3 12,9 11 6 22 12 SW 1021,1 26 0,0
19.06.2018 02:00:00 14,3 11,2 13,5 11 6 22 12 SW 1020,6 33 0,0
19.06.2018 01:00:00 14,6 11,3 13,6 11 6 14 8 SSW 1020,7 10 0,0
19.06.2018 00:00:00 14,3 11,3 12,3 9 5 11 6 SSW 1021,1 10 0,0
18.06.2018 23:00:00 15,3 11,4 14,0 9 5 14 8 SW 1021,1 10 0,0
18.06.2018 22:00:00 17,1 11,9 16,2 9 5 18 10 SW 1020,7 10 0,0
18.06.2018 21:00:00 18,6 12,5 18,6 8 4 22 12 WSW 1020,3 10 0,0
18.06.2018 20:00:00 19,3 12,3 19,2 13 7 29 16 WSW 1020,0 10 0,0
18.06.2018 19:00:00 19,3 12,1 19,9 16 9 36 19 SW 1020,2 10 0,0
18.06.2018 18:00:00 18,6 13,1 18,7 21 11 32 18 SW 1020,4 10 0,0
18.06.2018 17:00:00 19,3 13,3 20,0 16 9 29 16 WSW 1020,3 10 0,0
18.06.2018 16:00:00 19,1 13,5 19,8 22 12 32 18 W 1020,4 31 0,0
18.06.2018 15:00:00 19,1 14,4 19,3 11 6 25 14 WSW 1020,0 10 0,0
18.06.2018 14:00:00 18,7 14,9 18,8 11 6 22 12 - 1020,1 10 0,0
18.06.2018 13:00:00 17,7 15,6 17,5 9 5 22 12 SW 1020,2 10 0,0
18.06.2018 12:00:00 16,9 15,9 16,9 13 7 25 14 SSW 1019,7 10 0,1
18.06.2018 11:00:00 16,9 15,0 17,2 16 9 32 18 SSW 1019,7 10 0,0
18.06.2018 10:00:00 17,6 14,1 17,8 16 9 32 18 SW 1019,5 10 0,0
18.06.2018 09:00:00 17,5 13,7 18,4 18 10 32 18 SSW 1019,0 10 0,0
18.06.2018 08:00:00 16,6 13,1 17,1 15 8 32 18 SW 1018,9 10 0,0
18.06.2018 07:00:00 16,4 12,3 16,2 13 7 22 12 SSW 1018,9 10 0,0
18.06.2018 06:00:00 15,9 11,8 15,6 13 7 22 12 SSW 1018,8 10 0,0
18.06.2018 05:00:00 15,6 11,7 15,3 15 8 22 12 SSW 1018,6 10 0,0
18.06.2018 04:00:00 15,5 11,9 15,2 13 7 25 14 SSW 1018,7 10 0,0
18.06.2018 03:00:00 15,5 11,5 14,9 11 6 22 12 SSW 1019,0 10 0,0
18.06.2018 02:00:00 14,5 12,2 14,1 9 5 29 16 WSW 1019,3 10 0,0
18.06.2018 01:00:00 15,8 10,6 15,4 15 8 25 14 SW 1019,5 10 0,0
18.06.2018 00:00:00 15,6 11,0 14,7 8 4 14 8 SW 1019,4 10 0,0
17.06.2018 23:00:00 15,4 12,5 14,8 8 4 11 6 S 1019,4 10 0,0
17.06.2018 22:00:00 15,7 12,3 15,3 8 4 14 8 SSW 1019,3 10 0,0
17.06.2018 21:00:00 15,8 12,4 15,5 9 5 14 8 SSW 1019,1 10 0,0
17.06.2018 20:00:00 15,9 12,3 16,1 9 5 14 8 SSW 1018,8 10 0,0
17.06.2018 19:00:00 15,8 12,7 16,6 5 3 18 10 SSW 1018,7 10 0,0
17.06.2018 18:00:00 15,4 12,4 15,7 9 5 18 10 WSW 1019,0 10 0,0
17.06.2018 17:00:00 14,4 12,8 14,6 16 9 29 16 W 1019,0 4,3 0,2
17.06.2018 16:00:00 18,3 10,0 19,9 15 8 25 14 SW 1018,3 10 0,0
17.06.2018 15:00:00 17,0 9,1 17,7 18 10 29 16 WSW 1018,2 10 0,0
17.06.2018 14:00:00 17,1 9,4 17,9 18 10 29 16 SW 1017,8 10 0,0
17.06.2018 13:00:00 17,0 9,9 17,8 13 7 25 14 WSW 1017,6 10 0,0
17.06.2018 12:00:00 16,7 9,5 17,5 16 9 29 16 WSW 1017,4 10 0,0
17.06.2018 11:00:00 16,8 10,1 17,9 15 8 29 16 WSW 1017,2 10 0,0
17.06.2018 10:00:00 16,5 10,3 17,4 15 8 29 16 WSW 1017,0 10 0,0
17.06.2018 09:00:00 15,8 10,3 16,6 16 9 29 16 WSW 1016,6 10 0,0
17.06.2018 08:00:00 15,3 10,4 15,5 15 8 29 16 SW 1016,0 10 0,0
17.06.2018 07:00:00 14,7 9,9 14,6 11 6 22 12 SW 1015,8 10 0,0
17.06.2018 06:00:00 14,3 9,8 13,8 11 6 18 10 SW 1015,6 10 0,0
17.06.2018 05:00:00 12,5 9,9 10,5 8 4 14 8 SSW 1015,6 10 0,0
17.06.2018 04:00:00 13,3 9,9 11,7 9 5 18 10 SSW 1015,3 10 0,0
17.06.2018 03:00:00 13,5 9,3 12,0 9 5 18 10 SSW 1015,4 10 0,0
17.06.2018 02:00:00 14,7 9,3 14,0 9 5 14 8 SSW 1015,3 10 0,0
17.06.2018 01:00:00 14,5 9,2 12,3 8 4 11 6 SSW 1015,5 10 0,0
17.06.2018 00:00:00 14,5 8,8 12,2 5 3 14 8 SW 1015,5 10 0,0
16.06.2018 23:00:00 15,4 9,8 14,0 8 4 18 10 SW 1015,5 10 0,0
16.06.2018 22:00:00 16,6 10,6 15,3 8 4 14 8 W 1015,4 10 0,0
16.06.2018 21:00:00 18,0 10,7 17,9 8 4 18 10 WSW 1015,0 10 0,0
16.06.2018 20:00:00 19,7 10,3 21,6 13 7 29 16 W 1014,9 10 0,0
16.06.2018 19:00:00 19,3 9,9 20,6 21 11 32 18 WNW 1015,0 10 0,0
16.06.2018 18:00:00 19,9 11,6 21,4 24 13 32 18 WNW 1014,8 10 0,0
16.06.2018 17:00:00 21,2 12,4 23,4 15 8 40 21 W 1014,3 10 0,0
16.06.2018 16:00:00 22,3 10,6 23,5 15 8 29 16 WSW 1014,2 10 0,0
16.06.2018 15:00:00 23,8 9,8 25,2 15 8 32 18 WSW 1014,2 10 0,0
16.06.2018 14:00:00 22,8 9,4 25,0 15 8 29 16 SW 1014,5 10 0,0
16.06.2018 13:00:00 21,7 7,2 24,7 18 10 29 16 SSW 1015,0 10 0,0
16.06.2018 12:00:00 20,0 5,3 22,3 15 8 29 16 SW 1015,5 10 0,0
16.06.2018 11:00:00 19,3 7,9 20,7 13 7 29 16 SSW 1015,4 10 0,0
16.06.2018 10:00:00 18,1 9,1 19,7 11 6 22 12 SSW 1015,2 10 0,0
16.06.2018 09:00:00 17,6 8,6 18,6 9 5 22 12 SSW 1015,1 10 0,0
16.06.2018 08:00:00 16,3 11,0 16,5 8 4 14 8 SSW 1015,3 10 0,0
16.06.2018 07:00:00 14,9 12,2 14,7 7 4 14 8 W 1015,4 13 0,0
16.06.2018 06:00:00 14,4 11,9 13,6 7 4 14 8 WSW 1015,1 11 0,0
16.06.2018 05:00:00 14,3 12,5 13,4 7 4 11 6 SW 1015,1 10 0,0
16.06.2018 04:00:00 14,7 13,0 13,4 7 4 11 6 WSW 1015,4 7 0,0
16.06.2018 03:00:00 13,5 11,8 10,8 7 4 7 4 W 1015,5 10 0,0
16.06.2018 02:00:00 14,5 12,3 13,3 7 4 11 6 W 1015,6 13 0,0
16.06.2018 01:00:00 14,9 11,9 12,8 7 4 11 6 WNW 1015,7 15 0,0
16.06.2018 00:00:00 15,2 12,2 13,9 8 4 14 8 W 1015,8 10 0,0
15.06.2018 23:00:00 18,8 12,5 18,1 11 6 18 10 NNW 1015,7 10 0,0
15.06.2018 22:00:00 19,7 13,2 18,4 9 5 18 10 N 1015,5 10 0,0
15.06.2018 21:00:00 21,6 13,0 21,9 11 6 22 12 NNW 1015,5 10 0,0
15.06.2018 20:00:00 22,8 9,9 23,2 5 3 11 6 NNW 1015,5 10 0,0
15.06.2018 19:00:00 23,6 9,7 24,7 5 3 14 8 WSW 1015,6 10 0,0
15.06.2018 18:00:00 23,6 9,7 25,2 5 3 14 8 WSW 1015,7 10 0,0
15.06.2018 17:00:00 24,6 9,9 27,6 8 4 14 8 NNW 1015,6 10 0,0
15.06.2018 16:00:00 23,6 9,6 26,7 5 3 22 12 WSW 1016,2 10 0,0
15.06.2018 15:00:00 25,0 10,2 28,7 11 6 22 12 S 1016,2 10 0,0
15.06.2018 14:00:00 23,3 10,0 28,6 11 6 25 14 SSW 1016,5 10 0,0
15.06.2018 13:00:00 21,8 11,2 24,8 9 5 18 10 - 1016,6 10 0,0
15.06.2018 12:00:00 21,6 12,2 24,9 9 5 18 10 SSE 1016,7 10 0,0
15.06.2018 11:00:00 20,8 12,8 23,0 9 5 22 12 S 1016,8 10 0,0
15.06.2018 10:00:00 18,8 13,3 21,4 9 5 18 10 S 1016,8 10 0,0
15.06.2018 09:00:00 16,8 13,2 18,9 8 4 11 6 S 1016,8 10 0,0
15.06.2018 08:00:00 14,7 13,5 14,9 5 3 11 6 SSW 1016,5 9 0,0
15.06.2018 07:00:00 12,5 12,4 12,0 2 1 11 6 - 1016,1 3,5 0,0
15.06.2018 06:00:00 10,3 10,3 5,9 5 3 7 4 S 1016,1 0,2 0,0
15.06.2018 05:00:00 9,9 9,8 6,0 5 3 7 4 S 1015,9 0,2 0,0
15.06.2018 04:00:00 11,9 11,8 6,0 2 1 7 4 SSE 1015,7 2,3 0,0
15.06.2018 03:00:00 13,4 13,0 12,4 8 4 11 6 SSW 1015,7 3,9 0,0
15.06.2018 02:00:00 14,9 14,3 14,2 8 4 11 6 SSW 1016,0 5 0,0
15.06.2018 01:00:00 15,1 14,3 14,5 5 3 7 4 S 1016,0 7 0,0
15.06.2018 00:00:00 15,0 14,3 14,3 5 3 11 6 SSW 1016,0 8 0,0
14.06.2018 23:00:00 15,6 14,4 15,1 9 5 14 8 SSW 1015,6 10 0,0
14.06.2018 22:00:00 16,1 14,4 16,0 5 3 14 8 SSW 1015,4 10 0,0
14.06.2018 21:00:00 16,2 14,7 16,3 11 6 18 10 S 1014,8 10 0,0
14.06.2018 20:00:00 15,9 14,2 15,8 9 5 18 10 SW 1014,5 7 0,0
14.06.2018 19:00:00 16,3 13,7 16,5 13 7 29 16 SW 1014,3 6 0,0
14.06.2018 18:00:00 17,6 12,6 17,9 16 9 36 19 SW 1014,1 10 0,0
14.06.2018 17:00:00 19,4 12,1 20,0 22 12 43 23 SSW 1013,4 10 0,0
14.06.2018 16:00:00 19,1 12,1 19,7 22 12 36 19 SSW 1013,4 10 0,0
14.06.2018 15:00:00 18,0 12,2 18,0 16 9 36 19 SSW 1013,6 10 0,2
14.06.2018 14:00:00 18,4 11,2 18,6 22 12 36 19 SSW 1013,4 10 0,0
14.06.2018 13:00:00 20,0 9,9 21,1 21 11 43 23 SW 1013,8 10 0,0
14.06.2018 12:00:00 20,6 10,4 22,3 22 12 40 21 SW 1013,9 10 0,0
14.06.2018 11:00:00 19,6 10,3 21,0 28 15 40 21 SSW 1013,9 10 0,0
14.06.2018 10:00:00 19,5 10,9 21,8 24 13 36 19 SSW 1014,1 10 0,0
14.06.2018 09:00:00 17,3 10,8 18,2 18 10 29 16 - 1014,4 10 0,0
14.06.2018 08:00:00 13,7 10,4 12,9 11 6 18 10 S 1014,6 10 0,0
14.06.2018 07:00:00 11,7 9,7 11,1 13 7 18 10 S 1014,8 10 0,0
14.06.2018 06:00:00 10,2 8,8 8,2 9 5 14 8 S 1015,1 10 0,0
14.06.2018 05:00:00 8,9 7,6 2,3 8 4 11 6 S 1015,6 10 0,0
14.06.2018 04:00:00 9,2 8,0 2,1 5 3 7 4 S 1016,0 10 0,0
14.06.2018 03:00:00 7,7 6,9 2,9 4 2 7 4 S 1016,4 10 0,0
14.06.2018 02:00:00 9,1 8,2 3,1 4 2 4 2 S 1016,7 10 0,0
14.06.2018 01:00:00 9,2 8,2 3,3 4 2 7 4 - 1017,0 10 0,0
14.06.2018 00:00:00 10,7 8,9 4,9 5 3 7 4 S 1017,2 10 0,0
13.06.2018 23:00:00 12,5 9,1 6,5 4 2 7 4 - 1017,5 10 0,0
13.06.2018 22:00:00 13,4 8,7 9,0 4 2 7 4 SW 1017,4 10 0,0
13.06.2018 21:00:00 17,3 7,9 17,4 4 2 11 6 - 1017,1 10 0,0
13.06.2018 20:00:00 19,0 7,4 20,5 5 3 14 8 NNE 1017,2 10 0,0
13.06.2018 19:00:00 18,8 7,3 20,1 5 3 18 10 WNW 1017,2 10 0,0
13.06.2018 18:00:00 18,4 7,7 18,7 9 5 18 10 NW 1017,2 10 0,0
13.06.2018 17:00:00 18,5 6,7 20,6 11 6 25 14 NNW 1017,5 10 0,0
13.06.2018 16:00:00 18,1 7,4 20,7 15 8 29 16 N 1017,6 10 0,0

tt = Température de l'air
td = dewpoint
tt 5cm = Température de l'air 5cm
ff = Vitesse du vent
fx = gusts
dd = Direction du vent
ppp = reduced air pressure
vv = visibility
rr = Quantités de précipitations

stations d'obs. à proximité